Location: Unspecified
(0.0000°N, 0.0000°E)
Time: 19:34:50
(UTC+00:00)

deb Briz - Pass Details

Date: 21 February 2026
Orbit: 1858 x 2172 km, 64.9° (Epoch: 11 March)

Event Time Altitude Azimuth Distance (km) Brightness Sun altitude
Rises 01:36:38 0° 161° (SSE) 5,483 ? -66.8°
Reaches altitude 10° 01:44:05 10° 130° (SE) 4,561 ? -65.1°
Maximum altitude 01:47:22 11° 113° (ESE) 4,475 ? -64.4°
Drops below altitude 10° 01:50:41 10° 96° (E) 4,620 ? -63.7°
Sets 01:58:13 0° 67° (ENE) 5,670 ? -61.9°
